Find Starlink 11648

NORAD ID: 63313 Int'l Des: 2025-057 Owner: SPXS Country: US Constellation: starlink operational
別名: STARLINK-11648 [DTC] celestrak
LEOCIRCULAR

現在のビュー

3D地球を読み込み中...

About Starlink 11648

Starlink 11648 (NORAD 63313) is a starlink constellation satellite (v2 mini d2c) launched Mar 18, 2025 by SPXS of US. It operates in LEO, CIRCULAR orbit with a mass of 960.00 kg.

次回通過

Passes for default location (London). Set your location on the main map for personalized predictions.

高度履歴

Loading altitude history...

軌道要素

1 63313U 25057G 26264.45090413 .00201192 00000-0 15261-2 0 9993
2 63313 42.9995 164.7372 0003963 264.3519 95.6897 15.70954238 87965
Epoch: Sep 21, 2026 • Age: 13 hours

現在のステータス

高度 365.8 km
遠地点 / 近地点 N/A
速度 7.69 km/s
衛星直下点 -42.00°S, 52.51°E
打ち上げ日 Mar 18, 2025
運用期間 1.5 years
タイプ internet

技術仕様

分類 Payload
質量 960.00 kg
乾燥質量 910.00 kg
長さ 0.30 m
スパン 29.00 m
形状 ? Box + pan
製造者 SPXS
バスタイプ Starlink V2MD
フェーズステータス In Orbit
所有者/国 SPXS/US

Most Searched